Weather Roundup
Issued by NWS Springfield, MO

Home | Current Version | Previous Version | Text Only | Print | Product List | Glossary On
Versions: 1 2 3 4 5 6 7 8 9 10 11 12 13 14 15 16 17 18 19 20 21 22 23 24 25 26 27 28 29 30 31 32 33 34 35 36 37 38 39 40 41 42 43 44 45 46 47 48 49 50
000
NZUS99 KSGF 231107
HRRSGF

HOURLY WEATHER
NATIONAL WEATHER SERVICE SPRINGFIELD MO
600 AM CDT THU MAR 23 2017

......SGF CWA......

CITY           SKY/WX    TMP DP  RH WIND       PRES   REMARKS
SPRINGFIELD    PTCLDY    48  27  44 SE22G31   30.13F
JOPLIN         MOCLDY    52  39  61 SE7       30.10S
WEST PLAINS    CLOUDY    47  24  40 SE9       30.23F
ROLLA          CLOUDY    46  23  40 SE15      30.18F
BRANSON        CLOUDY    46  28  49 SE16G22   30.18F

......SURROUNDING SGF CWA......

CITY           SKY/WX    TMP DP  RH WIND       PRES   REMARKS
CHANUTE        CLOUDY    56  43  61 SE13      30.05F
PARSONS        PTCLDY    56  45  66 SE7       30.06F
COFFEYVILLE    PTCLDY    55  45  68 SE10      30.06F
EMPORIA        CLOUDY    54  44  69 SE15      30.01F
GROVE OK       MOCLDY    55  43  62 SE8       30.11S
ROGERS AR      CLEAR     49  37  63 SE10      30.13S
SILOAM SPRINGS CLEAR     52  37  58 E5        30.11R
HARRISON AR    CLOUDY    45  32  60 SE14      30.19S
NEAR YELLVILLE CLOUDY    46  28  49 E5        30.20F

......KANSAS AND MISSOURI......

CITY           SKY/WX    TMP DP  RH WIND       PRES   REMARKS
KANSAS CTY INT CLOUDY    51  31  46 SE15      30.08S
DOWNTOWN KC    CLOUDY    53  29  39 SE10      30.08F
COLUMBIA       CLOUDY    41  33  73 SE10      30.19F
SEDALIA        CLOUDY    50  27  40 SE13      30.15F
ST JOSEPH      LGT RAIN  48  37  65 SE8       30.09F
ST LOUIS       LGT RAIN  40  30  67 SE13      30.28F WCI  32
SPIRIT OF STL  CLOUDY    40  30  67 E8        30.27S WCI  34
KIRKSVILLE     LGT RAIN  41  28  60 SE12G20   30.21S
WICHITA        MOCLDY    54  46  74 SE12      29.95F
TOPEKA         CLOUDY    52  36  54 E9        30.04F
OLATHE         CLOUDY    51  31  46 SE12      30.08S

......TENNESSEE......

CITY           SKY/WX    TMP DP  RH WIND       PRES   REMARKS
MEMPHIS        MOCLDY    51  24  34 E7        30.26R
NASHVILLE      CLEAR     39  26  59 NE6       30.32R WCI  35

......ARKANSAS.......

CITY           SKY/WX    TMP DP  RH WIND       PRES   REMARKS
FAYETTEVILLE   CLEAR     49  39  68 E5        30.12F
FT SMITH       CLEAR     49  35  58 E9        30.15S
LITTLE ROCK    CLEAR     45  39  79 NE7       30.22R

......OKLAHOMA.......

CITY           SKY/WX    TMP DP  RH WIND       PRES   REMARKS
TULSA          MOCLDY    54  44  69 SE9       30.05R
PONCA CITY     CLEAR     57  48  72 SE22G29   29.97F
MCALESTER      PTCLDY    59  47  64 SE9       30.06R
OKLAHOMA CITY  CLEAR     59  56  89 SE17      29.96F

......IOWA............

CITY           SKY/WX    TMP DP  RH WIND       PRES   REMARKS
DES MOINES     CLOUDY    42  18  37 SE9       30.15F
QUAD CITIES    CLOUDY    34  23  64 E12       30.32F WCI  25

......ILLINOIS........

CITY           SKY/WX    TMP DP  RH WIND       PRES   REMARKS
QUINCY         CLOUDY    37  27  67 SE10      30.26S WCI  30
CHICAGO        CLOUDY    33  19  56 SE10      30.41S WCI  25



USA.gov is the U.S. government's official web portal to all federal, state and local government web resources and services.